Back to catalog

SL-16 DEB

AliveLEO
NORAD 22349·DEBRIS·🇷🇺 Russia

Launched Dec 25, 1992 from Baikonur Cosmodrome

Loading…

Next Passes (next 24 hours)

TLE

FreshSource: Space-Track

Epoch: Sep 14, 2026, 14:51 UTC

1 22349U 92093AN  26257.61942160  .00000354  00000-0  32238-3 0  9997
2 22349  70.8186 121.2644 0182557  29.8901   0.6435 13.82812688695240

Track SL-16 DEB in real time with AllMySat

Download on the App Store